Wind_Speed
27 26 24 23 21 19 18 17 17 15 12 10 9 10 10 5 3 7 7 6 5 7 10 11 12 15 17 18 18 18 20 21 23 25 28 31 33 35 38 39 38 37 36 36 36 34 32 31 30 29 29 28 27 25 24 23 21 20 18 16 13 12 12 13 15 14 14 14 14 15 15 14 14 14 14 13 12 12 13 14 16 18 18 18 18
27 26 25 23 22 20 19 18 17 14 12 11 11 11 10 7 9 10 7 6 8 9 10 12 13 14 16 17 17 18 20 22 23 26 28 31 33 36 38 39 38 36 36 36 35 33 32 31 30 29 28 27 26 25 24 22 21 20 18 16 13 11 10 10 11 11 11 11 13 15 15 15 15 13 13 12 12 12 13 14 15 17 17 18 19
28 27 26 25 23 20 18 19 17 15 15 13 12 11 9 9 11 9 6 7 9 10 10 12 14 14 15 16 17 18 20 22 24 26 28 31 33 37 39 39 37 36 35 35 34 32 31 30 30 28 27 26 25 24 24 22 21 20 18 15 14 13 10 8 7 7 7 6 8 11 12 13 14 13 13 12 12 13 13 14 15 17 18 19 19
29 27 26 26 24 22 21 19 14 13 15 14 12 12 11 9 8 6 7 8 9 10 11 13 14 14 14 15 17 18 20 22 24 26 28 31 34 38 39 38 36 35 35 34 32 31 30 29 28 27 26 25 25 24 23 22 20 18 16 16 17 16 14 11 8 6 5 4 4 5 7 8 10 11 12 12 12 12 13 13 15 16 17 18 18
29 28 27 26 25 24 23 18 11 12 14 14 13 13 11 9 8 8 9 9 9 10 12 13 14 15 15 15 17 19 21 22 24 26 28 32 35 38 38 36 34 34 34 33 31 29 29 28 27 26 25 25 24 24 22 21 19 17 16 16 16 16 15 14 12 9 7 5 4 3 4 5 6 7 8 9 9 10 10 11 13 13 13 14 16
29 28 27 26 25 25 22 18 15 15 15 14 13 10 9 10 10 11 11 10 10 11 12 14 15 15 16 16 18 20 22 23 24 26 29 32 35 37 36 34 32 32 32 31 29 28 27 26 26 26 25 25 24 24 23 21 18 16 16 16 15 14 14 14 13 12 10 9 7 5 5 4 4 4 5 6 6 7 8 9 10 10 9 10 11
28 29 28 27 26 25 22 19 19 18 17 15 12 9 9 11 11 11 11 10 11 11 13 15 15 16 16 17 19 20 22 23 24 26 29 32 35 36 34 32 31 31 31 29 28 27 26 25 25 25 25 24 24 24 23 21 18 16 15 15 14 15 15 15 14 14 13 12 10 9 8 5 3 4 5 5 5 4 5 6 7 6 6 7 8
29 29 29 28 26 24 22 21 20 19 18 15 12 11 11 11 11 11 11 11 12 13 14 15 16 17 17 18 19 20 22 24 25 27 29 32 34 34 32 29 29 29 29 28 28 26 25 25 25 25 24 24 24 24 23 20 18 16 15 15 14 15 16 15 15 15 14 13 12 10 10 9 7 6 6 5 4 4 3 4 6 5 5 5 5
29 30 30 28 27 25 23 22 21 20 18 15 13 12 12 11 12 12 12 12 13 14 15 16 17 17 18 18 19 20 22 24 25 27 29 31 33 32 29 27 27 27 27 27 27 26 25 25 25 25 25 25 24 23 21 20 18 17 15 14 14 15 17 16 15 15 14 13 12 11 11 11 10 9 7 5 5 6 6 6 6 6 5 5 4
30 30 30 29 27 26 24 22 22 20 17 15 14 13 13 13 13 13 13 14 14 15 16 17 18 18 18 18 19 20 22 23 25 27 29 30 31 29 26 24 24 24 25 26 27 27 26 26 26 26 25 25 24 23 21 19 18 17 15 14 13 14 15 16 16 15 14 13 12 12 12 11 11 10 8 8 9 9 8 7 7 7 6 5 4
30 30 30 29 28 27 25 23 22 20 17 16 15 15 14 15 15 15 15 14 15 16 17 18 18 19 19 19 19 20 22 23 25 26 28 29 28 26 23 21 21 22 23 24 25 25 25 25 25 25 26 26 25 24 22 20 18 16 15 14 13 13 13 14 15 15 14 13 13 13 12 11 12 11 10 11 11 10 10 10 9 8 8 8 7
30 30 30 29 28 27 25 24 22 19 18 17 17 16 16 16 16 16 16 15 16 16 17 18 19 19 20 20 20 21 22 23 25 26 28 28 26 23 20 19 19 20 21 22 23 24 24 23 23 23 24 25 25 24 23 21 19 17 15 14 13 13 12 12 13 13 14 14 14 14 13 13 13 12 12 12 12 11 11 12 11 10 10 10 9
30 30 30 29 29 28 26 24 22 20 19 19 19 18 18 18 17 17 16 16 16 17 17 18 19 20 20 20 21 21 22 23 25 26 27 26 23 20 18 17 17 18 20 21 22 22 22 21 21 21 22 23 23 24 23 22 20 18 16 14 13 13 13 12 12 12 12 14 15 14 14 14 13 12 12 12 13 13 13 12 12 11 11 11 10
30 29 30 29 29 28 27 25 23 21 21 21 21 20 19 19 19 17 17 17 17 17 18 18 19 20 20 21 21 21 22 23 24 25 25 23 21 18 16 15 16 17 18 19 21 21 21 20 20 20 21 21 21 22 22 22 21 19 17 16 14 14 13 13 12 11 11 12 14 14 14 14 13 13 12 12 13 13 12 12 12 12 12 12 11
30 30 30 30 29 29 28 25 23 23 23 23 23 22 21 20 19 18 18 18 18 18 18 18 19 20 21 21 21 21 22 23 24 24 23 21 19 16 14 14 14 15 16 18 19 20 20 19 18 19 19 20 20 20 20 20 20 20 20 18 16 15 14 13 12 11 11 11 13 14 15 15 14 13 12 12 13 13 11 11 11 12 12 13 13
31 31 30 30 29 29 27 25 24 24 25 25 25 24 23 21 20 20 20 20 20 20 20 19 20 21 21 22 22 22 22 22 23 22 21 19 17 15 13 13 12 13 14 16 18 19 19 18 17 18 18 19 19 19 19 19 19 20 21 20 18 16 15 14 13 13 12 12 13 14 14 14 13 13 13 13 13 13 12 11 11 11 11 12 12
32 31 31 30 29 28 26 25 25 25 26 27 26 26 24 23 22 22 22 21 21 21 21 21 21 21 21 22 22 22 22 22 21 20 19 17 15 14 13 12 11 11 13 14 16 17 18 17 17 17 17 18 19 19 19 18 18 19 20 21 20 19 17 15 14 14 13 13 13 13 12 12 12 13 13 12 11 11 11 9 9 9 10 10 10
33 32 31 30 29 28 26 25 25 26 27 28 28 27 26 25 25 24 23 23 23 23 22 21 21 21 22 23 23 22 22 21 20 19 17 16 14 13 12 11 10 10 11 13 14 16 17 17 16 16 16 17 18 18 18 17 17 18 19 20 20 20 18 16 14 14 13 13 12 11 11 11 12 12 12 12 11 11 10 8 8 9 9 10 10
33 32 31 30 29 28 27 26 25 26 27 29 29 29 27 27 26 25 25 24 24 24 23 22 22 22 22 23 23 23 21 20 19 18 16 15 13 12 11 10 10 9 9 11 13 14 16 16 15 15 15 16 17 17 16 16 16 17 18 19 19 19 18 17 15 13 13 12 11 11 11 12 12 12 13 13 13 13 11 8 8 8 8 9 10
32 32 31 30 30 29 28 27 26 26 27 28 29 29 29 29 28 27 26 26 25 24 24 23 22 22 23 24 24 22 20 19 18 17 16 14 12 11 10 9 9 8 8 10 12 13 14 15 15 15 15 15 15 15 14 14 14 16 17 17 17 17 18 18 16 15 13 12 12 12 12 13 13 13 14 15 16 16 15 12 9 7 7 9 10
31 32 32 31 31 30 29 28 27 27 26 27 28 29 30 30 29 28 28 27 26 25 24 23 21 21 23 24 22 20 19 18 17 16 15 13 11 10 9 9 8 7 7 8 10 12 13 14 14 14 14 14 14 14 13 13 13 15 15 15 16 16 17 17 16 15 15 14 14 13 13 14 14 15 16 16 17 18 18 17 13 10 9 8 8
31 31 31 31 31 31 30 29 28 27 26 26 27 29 30 32 32 31 30 29 28 27 26 23 20 20 22 22 20 19 18 18 16 15 14 12 10 10 9 8 8 7 7 8 9 11 12 13 13 13 14 13 13 13 12 11 12 13 14 14 14 15 16 15 15 14 14 14 14 13 13 14 15 15 15 16 17 18 19 19 17 15 12 11 10
30 29 30 31 31 30 29 28 27 26 25 25 26 28 31 34 34 33 31 30 29 29 28 24 20 19 20 18 18 18 17 16 15 14 13 11 10 9 9 8 7 6 6 7 9 10 11 12 12 12 12 12 12 12 11 10 11 12 12 12 12 14 14 14 13 13 13 13 12 12 13 13 14 14 15 16 16 17 18 19 19 18 16 15 13
28 29 30 31 30 29 29 27 26 25 24 24 25 28 32 35 35 34 32 31 30 30 29 26 22 20 18 16 16 16 15 15 15 14 12 10 9 9 8 8 7 6 6 7 8 10 11 11 11 11 11 11 11 10 9 9 9 10 10 11 11 12 12 12 12 12 12 12 12 11 12 13 13 14 14 15 15 15 16 16 17 17 16 15 15
28 29 30 30 30 30 28 27 25 24 24 24 25 29 33 35 35 33 31 31 31 29 27 24 21 19 17 15 15 14 13 14 15 13 11 10 9 8 8 7 6 6 5 6 8 9 9 10 10 10 10 9 9 9 8 8 8 8 8 9 10 11 11 11 11 11 10 10 10 10 11 12 12 13 13 13 13 13 13 13 14 14 14 14 13
27 29 30 30 30 29 28 26 25 23 24 25 28 30 32 34 34 33 32 32 30 28 26 24 21 19 17 15 14 12 12 14 14 13 11 10 9 8 8 7 6 6 5 6 7 7 8 9 10 9 8 8 8 8 8 8 7 7 7 8 8 9 9 9 9 9 9 9 9 10 10 10 10 11 11 11 11 11 12 12 12 12 12 12 12
26 28 29 30 29 28 27 26 25 26 28 30 32 33 33 34 35 35 34 31 26 24 23 21 19 18 17 14 12 12 12 13 13 12 11 10 9 8 7 7 6 5 5 5 6 6 7 8 8 7 7 7 8 8 8 8 7 7 7 7 7 7 8 8 8 7 7 7 8 8 9 8 9 9 9 9 10 10 11 11 11 11 12 11 11
26 27 29 29 28 28 27 27 28 31 32 32 33 34 34 34 36 37 36 31 24 22 21 18 17 18 17 15 14 13 13 12 12 12 11 10 9 8 7 6 6 5 5 4 5 5 6 7 7 7 7 7 7 7 7 8 8 8 7 6 6 6 6 6 7 6 6 6 6 6 7 7 7 7 8 8 9 9 10 11 10 11 11 11 10
27 28 29 29 29 29 29 30 32 33 32 32 33 33 32 34 35 36 36 32 26 23 21 18 18 19 18 17 16 14 12 11 12 12 12 10 9 8 7 6 6 5 5 4 4 4 5 6 6 5 5 6 6 7 7 7 7 7 7 6 5 5 5 5 5 5 5 5 5 5 5 6 6 6 7 7 8 9 10 10 9 9 10 10 9
30 30 30 30 30 31 32 33 34 34 34 33 34 33 32 32 33 33 31 30 29 26 19 17 21 22 20 18 17 14 12 12 12 12 12 10 9 8 8 6 6 5 5 4 3 3 4 4 4 4 5 6 7 8 8 7 7 7 7 6 5 5 4 4 4 4 4 4 4 4 4 5 5 5 6 6 7 8 8 8 8 8 8 8 9
32 32 32 32 32 33 34 34 34 35 35 33 32 31 31 31 31 29 28 29 31 27 20 20 23 24 20 18 17 15 14 13 12 12 11 10 10 9 8 7 6 6 5 4 3 2 2 3 3 4 6 6 7 7 7 7 7 7 7 6 6 5 5 4 4 4 4 3 3 3 3 4 4 5 5 6 6 7 7 7 7 7 7 8 8
33 34 34 34 35 36 36 35 35 35 36 34 31 29 29 30 29 28 28 27 26 24 22 22 23 21 18 17 17 15 14 13 13 12 12 11 10 9 9 8 7 7 6 5 4 2 1 2 2 4 5 6 6 7 7 7 7 7 7 6 5 5 5 4 4 4 3 3 3 3 3 3 4 4 4 5 5 6 6 6 6 7 7 7 7
30 33 34 36 37 38 37 37 36 37 36 34 29 25 24 25 25 27 27 25 23 22 23 23 22 18 17 17 17 15 14 13 13 12 12 11 11 10 9 8 8 8 7 6 5 3 1 0 1 3 4 5 6 6 6 6 6 6 6 5 5 5 4 4 3 4 4 3 3 3 3 3 3 3 3 4 4 5 6 6 6 6 6 6 7
23 26 29 31 33 34 34 35 35 35 35 32 28 24 23 24 25 25 23 23 24 24 24 23 19 17 18 18 16 15 14 13 13 13 13 12 11 11 10 9 9 9 8 7 6 4 2 1 1 2 3 5 5 5 5 6 5 5 5 4 4 4 3 3 3 3 4 3 3 3 3 3 2 3 3 4 4 5 5 5 5 5 5 6 6
17 19 21 24 26 28 29 30 31 32 32 30 26 24 24 24 24 22 21 23 25 25 24 20 18 17 18 17 16 15 14 14 14 14 13 13 12 12 10 10 10 10 9 8 7 5 3 2 2 2 3 4 5 5 5 5 4 4 4 3 3 3 3 3 3 3 4 4 3 3 2 2 2 2 3 3 4 5 5 5 5 5 6 6 8
14 15 16 19 21 23 24 26 26 26 27 26 24 21 20 20 21 21 22 24 25 24 20 17 17 17 17 17 16 14 14 15 15 14 14 13 13 12 11 11 11 11 10 9 8 6 4 3 3 2 3 4 4 5 5 5 4 3 3 3 2 2 2 3 3 3 3 4 3 2 2 2 2 2 3 4 4 5 5 6 6 6 7 8 9
11 12 14 16 18 19 20 21 21 20 21 22 22 20 19 20 22 22 23 23 22 19 16 16 16 16 16 16 15 14 15 15 15 15 15 14 14 13 12 12 11 11 11 10 9 7 5 5 4 3 3 3 4 4 5 5 4 2 2 2 1 2 2 2 2 2 2 3 2 2 1 1 2 2 3 4 5 5 6 6 6 7 8 9 10
10 11 13 14 15 16 18 19 20 19 20 21 21 20 20 22 23 23 22 21 18 16 15 16 16 16 16 16 15 15 15 15 15 16 15 15 14 14 13 12 12 12 11 11 9 8 7 6 5 4 3 3 4 4 4 4 4 3 1 1 0 1 2 2 2 1 1 2 2 1 1 1 2 3 4 5 5 5 6 6 7 8 9 9 9
9 10 12 13 14 15 17 19 19 19 20 21 21 22 23 23 23 21 20 18 17 17 17 17 18 18 17 16 15 14 15 15 16 16 16 15 15 15 14 13 13 13 12 11 9 8 8 7 6 5 4 3 3 4 4 4 4 3 1 1 1 1 1 1 1 1 1 1 1 0 1 1 2 3 4 5 5 6 6 7 8 9 9 9 9
9 10 11 11 11 13 16 18 19 19 21 22 22 22 23 22 20 20 19 18 18 17 16 17 18 18 17 16 15 14 15 16 16 16 17 16 16 15 14 14 14 13 12 11 9 9 8 8 7 6 5 4 4 4 4 4 4 3 2 1 1 2 2 1 1 1 1 1 1 1 2 2 3 3 4 5 6 6 7 8 8 9 9 9 10
9 10 11 10 10 12 14 16 17 18 20 21 21 21 21 20 19 20 20 19 17 16 16 17 19 18 17 16 16 16 16 16 17 17 17 16 16 16 15 15 15 14 13 11 10 9 9 9 8 7 6 5 5 5 5 5 4 3 2 2 2 2 2 2 2 2 2 2 2 3 3 3 4 4 5 6 6 7 8 8 9 9 9 10 10
10 10 11 10 10 11 11 12 14 16 17 19 19 20 20 20 20 21 20 18 16 16 17 18 18 17 16 16 17 17 17 17 17 17 17 17 16 16 16 16 16 15 14 12 10 10 10 9 9 8 7 6 6 6 6 6 6 5 4 3 3 3 3 3 3 3 3 3 4 4 4 5 5 5 6 7 7 8 8 9 9 10 10 10 10
12 11 11 11 11 11 12 13 14 15 17 18 19 19 20 20 20 20 18 17 17 17 18 18 18 17 16 17 18 18 17 17 17 17 17 17 16 17 17 17 16 16 15 13 11 11 10 10 10 9 8 7 7 7 7 8 8 7 6 5 5 5 5 5 5 4 5 5 6 6 6 6 6 7 7 8 8 9 9 9 10 10 11 10 10
14 13 13 13 13 13 14 15 15 17 19 19 19 19 20 20 19 18 17 17 17 18 17 17 17 16 16 17 19 18 17 17 17 17 16 17 17 17 18 18 18 17 16 14 12 12 12 11 11 10 9 9 8 8 9 9 9 9 9 8 7 7 7 7 7 7 6 7 7 7 8 8 8 8 9 9 10 10 10 10 10 11 11 11 11
16 15 14 14 15 16 16 17 17 18 19 20 20 21 20 19 18 18 18 18 18 17 16 17 17 16 16 18 19 18 17 17 17 17 17 17 17 18 19 19 19 17 16 14 14 14 13 13 12 11 10 10 10 10 10 10 11 11 11 10 9 9 9 9 9 9 8 8 8 9 9 9 9 9 10 10 11 11 11 11 10 11 11 11 11
17 17 17 17 17 18 18 20 20 20 20 21 22 21 19 18 17 19 21 21 19 17 16 18 18 16 16 17 19 18 17 17 17 17 17 18 18 18 19 20 19 18 16 16 15 15 15 15 14 13 11 11 11 11 12 12 12 12 12 11 11 10 10 10 10 10 10 10 9 9 10 10 10 10 10 11 11 11 12 11 11 11 11 11 11
18 19 19 18 18 19 20 21 22 23 23 23 23 21 19 17 16 16 18 20 19 17 17 19 18 16 14 16 18 18 17 17 17 18 18 19 19 18 19 20 19 18 17 17 17 16 16 17 16 14 13 12 12 12 13 13 13 13 13 12 12 11 11 11 11 11 11 10 10 10 10 10 11 11 11 11 11 11 11 11 11 12 11 10 10
21 21 21 19 19 19 20 20 22 23 24 24 23 21 20 19 17 15 14 15 16 17 17 19 19 17 14 14 17 18 17 16 17 19 19 19 19 19 19 20 19 18 18 19 18 17 17 18 18 16 15 14 13 13 14 14 14 14 14 13 12 12 12 12 12 11 11 11 11 11 11 11 11 11 11 11 11 11 11 11 11 12 12 10 10
23 23 22 21 20 20 20 21 22 24 24 24 23 21 21 21 20 19 18 16 16 16 16 17 18 18 15 14 15 18 18 17 17 19 19 19 19 19 20 20 20 19 19 20 19 18 19 20 19 17 16 15 14 14 14 14 14 14 14 13 13 13 12 12 12 12 12 11 11 11 11 11 11 11 11 11 11 11 11 11 11 11 11 11 11
25 24 23 23 23 23 23 24 24 25 25 24 23 22 22 22 21 21 19 17 16 16 16 16 18 19 17 15 15 17 17 17 17 19 20 20 20 20 20 21 20 19 20 21 20 19 19 20 19 17 16 15 14 14 14 14 13 13 13 13 14 14 13 12 12 12 12 12 12 12 12 12 12 12 11 11 11 11 11 11 11 10 11 11 11
26 25 24 24 25 26 26 26 27 26 26 25 23 23 23 22 21 20 19 17 17 17 17 17 18 19 19 17 15 16 16 17 18 19 20 21 21 20 20 21 20 20 20 21 21 20 19 20 19 17 16 15 14 14 14 14 13 13 13 13 14 14 13 13 13 13 13 13 13 13 13 12 12 12 11 11 11 11 11 11 11 11 11 11 12
Wind_Direction
195 196 195 196 198 201 207 211 215 219 222 223 226 235 238 233 233 247 268 307 317 304 302 306 308 308 313 319 322 324 326 328 332 337 342 344 345 347 348 347 346 344 343 342 342 342 340 339 339 339 339 339 339 338 337 335 334 331 330 328 321 310 296 285 279 273 268 265 265 267 272 278 281 281 283 283 278 273 269 265 263 263 261 258 254
197 197 198 196 198 205 212 217 220 222 226 228 227 237 243 232 229 240 265 300 295 295 302 304 306 308 311 315 318 321 325 331 336 340 343 344 346 348 348 348 347 344 343 344 344 344 343 343 343 343 344 344 343 344 344 342 342 343 345 345 342 333 316 301 290 284 278 271 267 268 270 272 273 277 285 289 283 275 271 267 264 264 263 260 256
199 200 200 198 198 204 213 221 221 218 224 228 227 233 238 240 248 262 284 282 283 297 302 302 307 310 312 314 315 320 326 333 338 341 343 344 345 347 348 348 346 344 344 346 347 347 347 347 347 348 350 351 352 353 353 353 355 -0 7 16 22 16 358 339 325 314 305 288 273 269 267 265 267 272 277 280 280 277 275 272 267 263 262 261 258
201 203 203 202 201 201 211 223 223 216 221 227 229 230 234 247 263 276 278 276 286 296 298 304 308 308 310 312 313 319 328 334 338 341 343 343 344 347 349 348 346 345 347 349 351 351 351 351 352 355 357 359 2 3 3 5 11 18 30 39 40 34 25 15 6 354 340 322 295 282 278 272 267 268 273 275 275 275 276 275 270 265 264 264 263
203 204 206 206 207 209 218 227 227 222 224 227 231 234 243 259 270 270 273 281 289 294 300 305 305 306 309 310 312 321 329 334 338 340 341 341 345 349 350 348 347 348 350 353 355 355 355 357 360 2 4 7 11 13 14 19 24 31 40 44 42 38 32 27 26 26 25 19 3 334 320 306 283 274 281 283 279 276 275 272 270 269 268 266 266
205 206 207 209 212 217 224 227 226 229 232 234 237 240 247 255 259 265 273 281 286 292 299 300 301 305 307 309 314 322 329 333 336 339 339 342 347 350 350 348 349 351 354 358 359 360 1 3 6 8 10 14 20 23 25 29 33 37 41 42 41 37 33 31 32 33 32 32 31 22 1 337 312 308 308 300 290 282 275 271 271 270 266 266 269
208 209 210 213 215 219 223 223 225 233 238 240 243 245 245 248 254 262 270 278 283 289 294 297 301 303 305 311 317 322 328 331 334 337 338 342 348 351 350 350 352 356 360 3 4 5 6 8 11 13 15 20 25 29 30 33 37 40 42 43 42 38 35 35 35 34 34 36 36 32 24 18 8 356 349 339 324 301 279 280 288 289 285 284 286
209 212 213 216 219 222 223 223 226 233 240 244 248 247 246 249 254 258 264 271 276 282 289 295 299 300 305 312 316 321 326 329 332 336 338 343 349 351 351 352 356 1 6 10 11 11 11 14 16 17 19 23 28 31 32 32 35 39 42 44 45 41 36 35 36 36 39 40 38 38 38 39 41 35 28 18 355 343 341 330 327 330 325 313 300
211 213 216 218 221 223 223 223 226 233 241 247 249 248 248 249 249 253 257 264 271 279 287 293 297 300 304 311 315 319 322 326 331 334 338 344 350 351 352 355 0 7 13 17 18 19 20 21 21 21 21 23 26 29 29 29 32 36 39 41 42 38 35 36 39 39 41 42 41 45 48 47 49 49 43 37 23 18 17 6 358 359 355 343 321
212 214 217 220 222 224 224 224 228 235 243 248 248 247 249 247 246 248 253 260 270 278 285 292 297 300 304 309 314 316 319 324 329 332 338 345 350 351 353 357 4 11 18 22 24 26 28 28 27 26 25 25 25 26 25 24 26 30 32 32 33 34 33 35 38 39 42 44 43 46 49 49 50 49 42 37 35 31 30 28 25 26 32 30 12
213 214 218 220 222 225 227 226 230 237 242 246 247 247 246 245 245 249 254 261 270 278 285 292 297 301 305 309 312 314 317 322 326 332 339 346 350 351 353 359 7 13 19 23 25 28 30 31 31 31 30 29 28 26 24 20 21 25 28 26 26 29 31 32 34 36 40 43 42 45 48 49 48 46 43 42 38 36 39 41 40 43 54 55 46
214 215 217 220 222 226 229 230 233 239 242 244 246 246 245 243 245 251 257 264 272 279 286 291 297 302 307 309 312 313 315 320 325 332 339 346 349 351 353 1 9 13 17 20 23 25 27 29 32 32 33 32 31 30 26 22 21 22 24 23 21 23 27 32 34 35 37 40 42 46 48 49 48 46 46 45 41 42 47 47 48 52 60 62 58
217 217 218 221 223 227 230 233 235 239 241 243 244 244 244 243 246 254 260 268 275 280 285 290 297 304 308 310 311 312 314 319 325 331 340 347 348 349 353 1 8 12 16 19 21 23 24 26 29 32 33 33 33 31 29 26 25 24 23 22 19 18 21 27 32 34 37 40 44 48 50 50 50 49 51 49 44 45 48 49 53 58 62 65 62
221 220 221 223 225 228 232 234 237 239 240 242 243 244 244 243 248 256 263 270 276 279 283 289 296 304 309 310 310 311 312 317 324 332 340 346 347 348 351 357 5 12 16 19 21 22 22 23 26 31 33 33 32 31 29 28 28 28 28 27 23 19 20 24 30 36 40 43 45 49 53 52 50 49 50 49 48 49 48 51 58 61 64 65 63
226 225 226 227 228 230 233 236 237 238 240 242 243 244 244 244 249 256 263 270 275 277 280 287 296 304 309 309 309 309 311 316 325 333 340 344 346 347 346 351 3 11 15 18 20 21 20 19 23 29 31 31 31 30 29 27 27 29 31 32 30 26 24 27 34 41 46 48 48 50 53 52 50 48 46 48 53 54 51 55 63 65 67 70 69
229 228 230 231 232 233 235 237 239 241 242 243 244 244 245 245 250 256 262 268 273 275 279 287 296 304 308 308 308 308 309 317 326 333 339 343 343 342 341 347 359 8 13 17 19 20 18 16 21 28 30 30 30 31 30 27 27 28 32 34 36 35 34 36 42 48 51 52 53 54 51 48 48 49 48 49 57 62 60 59 67 72 73 76 75
231 232 233 234 235 237 238 240 242 243 244 244 244 245 245 246 250 256 261 267 272 276 281 288 296 302 307 308 307 306 308 318 326 331 337 340 338 337 338 344 355 4 11 14 16 18 17 15 20 27 30 30 30 31 31 30 28 29 32 34 37 40 43 44 47 51 53 54 57 56 51 46 46 47 46 45 50 61 64 62 66 77 80 77 73
233 234 236 237 239 241 241 243 244 244 246 246 245 245 245 246 251 256 261 266 271 276 281 288 295 300 305 307 305 305 309 318 325 330 336 337 333 332 335 341 350 359 7 10 12 14 15 14 18 24 29 31 30 31 32 32 32 33 34 36 38 42 47 50 51 54 56 57 58 56 52 47 42 38 36 35 36 44 55 61 66 73 77 76 73
234 236 238 240 242 244 245 246 247 247 247 247 246 245 245 247 251 256 261 265 270 275 281 287 292 297 303 306 304 304 311 319 324 328 333 333 327 326 332 338 345 354 2 5 6 10 12 13 16 21 27 30 29 29 32 33 35 38 39 39 40 42 47 51 54 56 57 57 55 52 48 43 40 36 35 35 34 34 38 48 62 70 73 77 79
235 237 240 242 244 246 248 250 250 251 251 249 247 245 245 247 251 256 261 265 269 274 280 284 288 293 300 303 303 306 313 318 322 327 330 327 321 321 328 335 339 348 356 358 1 5 8 10 14 18 23 27 27 26 29 33 38 42 43 43 44 45 48 51 55 57 57 56 53 50 48 47 47 47 43 40 38 37 38 42 54 70 76 78 83
236 239 241 243 245 247 249 251 253 254 253 250 247 245 244 246 251 255 259 263 267 271 275 278 281 288 296 300 303 308 313 316 320 325 326 321 316 317 325 331 333 340 349 353 356 1 4 7 11 15 19 22 23 23 25 31 40 44 45 46 47 49 49 51 55 57 58 58 57 56 57 57 56 54 50 47 44 43 45 48 54 65 75 79 78
238 240 241 243 245 246 248 251 253 254 254 252 247 244 244 246 249 253 257 262 265 268 269 271 275 283 291 298 303 307 312 315 320 322 321 316 312 315 322 326 327 333 341 346 352 359 2 5 8 12 14 15 17 19 21 29 40 44 44 46 50 53 52 51 53 56 58 60 60 61 62 62 60 58 57 54 51 49 50 52 56 63 70 74 71
239 240 241 242 243 245 247 250 252 254 254 252 248 245 244 245 249 253 258 263 266 266 267 270 272 278 286 295 301 306 310 315 318 319 316 310 307 311 316 318 320 326 333 341 350 357 1 4 5 7 9 10 13 17 19 26 37 43 43 45 50 55 56 54 54 56 58 59 60 61 63 63 63 63 62 59 57 56 55 55 57 60 63 66 66
238 238 239 240 241 244 246 248 251 253 254 253 250 247 245 246 249 254 259 264 265 264 266 269 270 273 282 292 297 301 308 313 315 314 309 303 301 305 308 310 314 321 329 340 350 356 360 1 0 1 5 9 12 16 17 23 33 40 43 46 49 52 55 55 54 55 57 59 60 60 62 62 63 63 63 61 58 57 58 58 60 61 62 62 62
238 237 238 240 242 244 246 246 247 248 250 250 248 247 248 250 252 255 259 262 262 262 265 268 268 270 277 285 289 295 306 312 312 308 302 298 297 298 302 305 309 316 327 340 350 356 357 356 354 357 4 10 15 18 18 22 30 37 42 45 47 50 52 53 54 53 54 59 62 62 62 63 62 62 61 59 57 55 55 57 59 61 62 61 59
238 239 240 242 244 245 245 244 245 248 251 252 250 250 251 252 253 255 256 257 258 260 263 267 268 268 270 276 282 294 307 309 308 304 298 295 293 293 296 301 303 310 324 338 347 352 353 352 352 355 1 11 20 23 23 24 27 32 41 44 45 46 47 48 50 50 50 55 60 62 61 61 62 62 60 58 57 55 53 53 55 58 59 59 58
239 240 241 243 244 244 244 245 249 253 254 254 254 254 254 254 254 255 254 252 250 251 258 266 266 263 266 275 286 297 304 304 303 301 294 289 287 287 290 293 296 303 317 333 343 349 352 350 347 350 1 15 24 24 23 25 27 30 38 40 42 44 44 43 44 45 46 50 55 60 61 59 58 60 60 58 58 57 54 51 51 55 58 58 56
240 241 243 245 246 246 246 248 251 252 253 255 257 258 258 259 259 259 259 257 249 247 260 271 264 257 265 279 288 295 299 300 300 296 288 282 279 279 283 286 288 294 307 324 336 343 350 349 348 353 5 17 24 25 22 23 24 27 32 34 37 41 42 42 43 41 40 45 50 55 61 61 60 60 61 60 59 58 56 52 52 56 59 58 55
240 242 244 247 247 247 247 249 251 253 256 260 262 262 261 262 262 262 262 261 256 258 265 264 254 254 266 277 283 287 292 295 294 288 281 277 272 271 275 277 279 286 296 309 321 335 350 352 348 353 5 15 24 27 23 20 20 23 27 29 31 38 40 43 44 40 36 39 44 51 58 61 62 63 63 63 63 62 59 56 56 58 60 58 55
244 245 247 248 248 248 249 251 254 257 261 263 265 265 264 262 261 259 258 260 263 264 257 239 240 251 262 271 277 281 286 290 289 282 277 271 265 264 266 267 269 277 282 289 301 323 351 350 340 353 12 19 22 22 17 14 14 18 22 25 28 33 38 41 45 46 42 40 44 54 60 64 65 66 66 67 68 65 62 59 57 55 55 57 56
248 249 249 250 250 250 252 254 257 261 263 265 267 267 263 259 256 256 259 265 265 255 236 227 238 249 257 268 278 283 285 286 281 273 270 265 258 257 258 258 261 266 269 272 278 300 350 351 345 7 19 19 19 19 13 8 8 11 17 20 23 30 34 37 42 46 43 44 55 65 70 73 71 69 69 71 69 65 62 59 56 51 49 52 55
248 248 248 249 249 251 253 256 259 263 266 265 264 260 253 250 254 260 266 266 254 235 224 231 241 248 260 274 281 283 282 278 269 265 264 258 252 252 251 252 256 258 258 259 255 255 351 356 351 12 19 14 14 16 10 3 4 10 15 16 21 27 30 33 41 45 40 41 56 68 73 74 71 70 71 70 64 58 55 53 50 48 45 45 48
248 248 248 249 250 252 255 257 259 264 266 264 263 258 249 249 260 268 266 254 237 225 227 235 241 251 268 278 281 281 276 268 262 260 257 251 247 247 246 248 252 253 251 247 239 226 184 36 348 4 11 9 9 10 4 358 1 10 15 16 23 31 33 33 40 46 44 42 51 64 69 68 68 69 69 62 52 47 47 44 42 41 39 36 35
250 250 250 252 254 256 257 258 259 262 263 263 264 263 259 261 269 269 254 233 223 226 231 234 241 258 272 277 278 276 269 261 257 254 249 245 243 242 243 246 250 251 249 241 231 216 184 180 297 342 358 358 359 1 357 352 356 11 18 19 27 38 46 48 50 55 54 52 54 62 66 63 62 60 53 43 37 34 34 33 29 28 28 26 19
258 255 254 256 257 257 257 257 257 258 261 263 262 258 256 259 261 251 230 216 218 224 228 234 248 264 272 275 275 270 263 258 253 247 243 242 240 239 241 245 248 248 245 237 228 212 189 198 253 304 340 345 345 350 348 343 349 11 24 27 36 47 56 59 63 70 71 69 65 62 61 59 51 43 34 26 23 20 17 16 13 9 8 6 1
268 262 258 257 257 257 258 259 259 258 260 260 256 248 243 242 235 223 213 212 217 221 228 241 258 268 272 274 272 266 259 254 247 241 238 239 238 237 239 241 244 246 242 235 225 212 200 210 240 272 313 329 333 337 337 333 337 6 32 37 47 64 70 66 72 83 86 85 80 66 59 55 35 21 15 9 6 3 1 1 359 355 352 351 349
276 266 260 258 258 258 258 257 254 249 246 244 241 239 235 226 216 212 212 215 218 225 240 255 265 269 271 272 270 264 256 248 242 237 235 235 235 236 236 238 241 243 240 233 223 212 209 218 235 258 289 314 321 324 326 322 323 344 33 46 61 94 101 92 91 93 90 92 90 71 57 43 11 357 355 353 351 349 349 348 345 343 344 345 346
275 261 254 253 253 253 252 247 241 237 235 232 230 232 229 220 214 215 216 217 226 242 258 266 268 270 272 271 267 262 254 246 240 236 234 234 235 234 234 236 238 237 235 230 222 214 214 222 234 251 272 293 305 311 315 314 310 319 10 38 102 142 136 135 131 116 102 104 101 78 41 0 344 339 338 339 339 337 338 338 337 338 341 344 346
271 253 243 242 243 246 247 243 240 240 239 233 229 229 227 221 219 220 220 224 241 257 265 267 268 270 272 271 268 263 256 249 242 237 235 234 234 233 232 235 237 237 234 228 220 214 217 223 231 242 254 269 283 292 298 301 299 301 316 301 252 223 192 167 155 152 151 142 141 179 289 312 319 322 326 331 331 331 331 332 333 336 338 340 340
264 246 236 235 240 246 248 245 240 239 237 232 230 230 227 223 224 227 230 239 253 260 261 262 264 267 270 270 266 261 254 247 241 238 236 234 232 231 231 233 235 236 234 228 220 217 218 222 229 236 241 250 261 272 281 285 289 293 292 274 265 264 256 228 197 201 207 213 238 253 272 293 305 313 321 324 323 323 325 327 329 331 333 333 334
254 240 232 231 236 244 250 249 243 238 235 232 229 227 223 222 230 240 247 253 258 257 256 259 263 267 269 268 263 257 252 247 242 238 235 233 232 230 229 230 232 232 232 228 223 220 219 221 227 231 233 238 246 255 264 269 273 278 279 270 266 270 272 270 266 263 268 274 273 275 282 290 298 307 313 314 315 317 320 321 324 326 328 330 332
246 239 235 232 233 239 245 245 240 236 230 223 219 218 221 228 240 249 252 254 254 255 258 261 265 268 269 266 263 260 255 251 245 239 235 233 232 230 229 229 229 229 229 228 226 223 223 224 226 228 231 235 240 247 255 260 263 264 263 261 263 265 270 275 277 279 285 288 288 290 292 294 299 303 304 306 310 311 314 317 319 321 325 328 330
240 238 237 235 232 232 233 234 232 227 219 213 213 220 228 237 244 247 248 250 254 259 263 266 268 270 269 265 263 263 259 253 247 241 237 235 233 230 230 230 228 228 228 227 227 229 229 229 229 230 231 235 240 246 252 257 261 261 259 259 263 266 269 273 276 280 288 291 293 296 297 298 300 302 301 304 305 304 307 312 314 317 322 325 327
238 237 236 236 235 231 228 227 226 222 218 219 225 231 235 239 242 245 247 252 258 262 266 269 271 273 270 266 264 264 261 255 249 243 239 236 234 231 230 230 229 228 227 227 229 233 235 235 234 233 233 235 241 246 251 255 260 263 262 261 262 266 270 274 275 278 282 285 290 294 297 298 300 300 299 301 302 302 306 310 311 315 320 323 324
239 236 234 234 235 233 230 226 223 221 223 228 233 234 234 236 241 246 250 253 255 260 267 270 272 274 272 267 265 265 261 255 249 245 240 238 235 232 230 230 229 229 228 229 231 235 239 240 239 237 236 237 242 246 249 252 257 261 264 265 265 266 269 272 274 276 279 281 285 290 293 295 298 298 297 298 299 301 305 309 311 313 316 319 323
238 236 233 232 232 232 230 228 226 225 228 232 232 230 229 234 243 253 257 255 252 257 267 271 272 273 271 267 265 264 260 255 251 247 242 239 237 233 231 231 230 228 229 231 233 236 240 243 243 240 239 240 243 246 250 252 255 259 262 265 267 268 270 272 273 274 277 280 283 287 291 294 296 296 296 296 297 300 304 307 310 311 312 315 320
234 235 233 232 231 231 230 228 227 228 230 231 229 226 226 232 245 259 261 254 249 253 265 272 272 272 269 266 264 264 260 255 252 248 242 240 238 234 231 231 230 227 228 233 235 237 241 244 243 242 241 242 245 248 251 253 256 258 260 263 267 269 270 271 272 273 275 278 282 286 289 292 293 295 296 296 297 299 301 303 306 307 308 311 315
231 233 234 232 230 231 231 229 226 227 228 227 226 225 226 233 244 257 260 253 251 257 265 270 272 273 270 263 262 263 261 255 250 247 242 239 237 235 232 232 230 226 228 233 236 237 241 244 244 242 241 243 246 249 251 253 256 258 260 262 265 267 268 269 271 273 274 276 281 284 287 290 292 293 295 297 298 299 300 301 302 306 310 315 316
231 232 233 232 229 229 230 228 225 224 225 226 226 227 231 237 247 257 261 261 262 265 267 269 273 277 276 267 261 261 261 256 249 246 241 238 236 235 233 232 230 227 228 233 235 236 240 244 244 243 241 243 246 249 251 252 254 257 260 262 263 264 267 268 270 272 274 277 280 282 285 288 291 292 294 296 297 299 301 302 303 305 309 311 311
233 231 231 231 229 227 226 225 223 223 225 226 227 231 235 241 249 258 264 267 268 268 268 270 273 278 279 274 264 261 261 257 250 245 241 237 235 234 233 233 231 228 230 233 235 236 239 243 244 243 242 242 243 246 249 251 253 256 259 261 262 264 266 267 268 271 274 276 280 282 284 286 289 291 293 296 297 299 301 302 303 302 302 304 306
236 231 229 230 231 229 226 224 223 223 225 226 228 232 238 244 251 258 264 270 273 272 271 271 274 277 279 277 270 263 259 255 249 244 240 236 234 233 234 234 232 230 232 235 236 234 236 239 241 241 241 242 242 245 248 251 254 257 258 259 261 264 265 266 268 271 273 275 278 281 283 285 286 289 292 295 296 298 299 299 301 302 302 303 306
Height
3198 3200 3202 3204 3206 3207 3209 3210 3211 3212 3213 3215 3216 3217 3218 3219 3220 3220 3219 3219 3220 3220 3220 3220 3220 3219 3218 3217 3217 3216 3215 3213 3211 3209 3206 3203 3201 3197 3194 3190 3186 3183 3179 3175 3172 3168 3165 3161 3158 3155 3152 3150 3147 3145 3143 3141 3139 3138 3136 3135 3134 3134 3133 3133 3132 3133 3134 3135 3136 3136 3136 3137 3137 3137 3137 3139 3140 3141 3141 3141 3141 3141 3141 3142 3142
3198 3200 3201 3203 3205 3207 3208 3209 3210 3212 3213 3214 3215 3216 3217 3219 3219 3218 3218 3219 3219 3219 3219 3219 3219 3219 3218 3217 3216 3215 3214 3212 3210 3207 3205 3202 3199 3196 3193 3189 3185 3182 3178 3174 3171 3167 3163 3160 3157 3154 3151 3148 3145 3143 3141 3139 3137 3136 3134 3133 3132 3132 3131 3131 3131 3131 3132 3133 3134 3134 3135 3135 3135 3135 3136 3137 3137 3138 3138 3139 3139 3139 3139 3139 3139
3197 3199 3201 3203 3205 3206 3207 3207 3209 3211 3212 3213 3215 3216 3217 3217 3217 3217 3218 3219 3218 3219 3219 3219 3218 3218 3217 3216 3216 3214 3213 3211 3208 3206 3204 3201 3198 3195 3192 3188 3185 3181 3177 3173 3169 3165 3162 3159 3156 3153 3150 3147 3144 3142 3140 3138 3136 3134 3133 3132 3132 3131 3131 3130 3130 3130 3131 3131 3132 3132 3133 3133 3133 3134 3134 3135 3135 3135 3136 3136 3137 3136 3136 3136 3137
3196 3198 3200 3202 3204 3205 3206 3206 3208 3210 3211 3212 3214 3215 3215 3216 3216 3216 3217 3218 3218 3218 3218 3218 3217 3217 3217 3216 3215 3214 3212 3209 3207 3205 3203 3201 3198 3194 3191 3187 3184 3180 3176 3172 3168 3165 3162 3158 3155 3152 3149 3147 3144 3142 3140 3138 3136 3134 3134 3133 3132 3132 3132 3131 3130 3130 3130 3130 3131 3131 3131 3131 3132 3132 3133 3133 3134 3134 3134 3134 3134 3134 3134 3134 3135
3195 3198 3199 3201 3203 3204 3204 3206 3208 3209 3210 3211 3212 3213 3214 3215 3215 3216 3216 3217 3217 3217 3217 3217 3216 3216 3216 3215 3214 3213 3211 3209 3207 3205 3202 3200 3197 3194 3190 3187 3183 3179 3175 3172 3168 3165 3162 3159 3156 3153 3150 3147 3145 3143 3140 3138 3137 3136 3136 3135 3134 3133 3133 3132 3131 3131 3130 3130 3130 3130 3130 3130 3131 3132 3132 3132 3132 3132 3132 3132 3131 3132 3133 3133 3132
3195 3197 3198 3200 3201 3202 3204 3206 3207 3208 3209 3210 3211 3212 3214 3214 3215 3215 3215 3216 3216 3216 3216 3216 3215 3215 3215 3214 3213 3212 3210 3208 3206 3204 3202 3199 3196 3193 3190 3186 3183 3179 3175 3171 3168 3165 3162 3159 3156 3153 3150 3148 3146 3144 3142 3140 3139 3138 3137 3137 3136 3135 3134 3133 3132 3132 3131 3131 3130 3130 3130 3130 3131 3131 3131 3131 3131 3131 3131 3131 3130 3131 3132 3132 3132
3194 3196 3197 3199 3200 3202 3203 3205 3206 3207 3208 3209 3210 3212 3213 3213 3214 3214 3214 3215 3215 3215 3215 3214 3214 3214 3214 3213 3212 3211 3209 3207 3205 3203 3201 3198 3195 3192 3189 3186 3183 3179 3175 3171 3168 3165 3163 3160 3157 3154 3152 3149 3147 3145 3143 3142 3141 3140 3139 3138 3137 3137 3136 3135 3134 3133 3133 3132 3131 3131 3131 3131 3130 3131 3131 3131 3131 3130 3130 3130 3130 3131 3131 3132 3132
3193 3194 3196 3197 3199 3201 3202 3204 3205 3206 3207 3208 3209 3211 3211 3212 3213 3213 3213 3213 3214 3214 3213 3213 3213 3213 3213 3212 3211 3210 3208 3206 3204 3202 3200 3197 3195 3192 3189 3186 3182 3179 3175 3172 3169 3166 3164 3161 3158 3156 3153 3151 3149 3147 3146 3144 3143 3142 3141 3140 3139 3138 3137 3136 3135 3135 3134 3133 3133 3132 3132 3131 3131 3131 3131 3131 3131 3131 3131 3131 3130 3130 3131 3131 3131
3191 3193 3194 3196 3198 3199 3201 3203 3204 3205 3205 3207 3209 3210 3210 3211 3211 3212 3212 3212 3212 3212 3212 3212 3212 3212 3212 3211 3210 3209 3207 3205 3204 3201 3199 3197 3194 3191 3188 3185 3183 3180 3176 3173 3170 3168 3165 3162 3160 3157 3155 3152 3150 3149 3148 3147 3145 3144 3142 3141 3140 3140 3139 3137 3137 3136 3135 3134 3134 3133 3132 3132 3132 3131 3132 3132 3132 3132 3132 3132 3131 3130 3130 3130 3130
3189 3191 3193 3195 3197 3198 3200 3201 3202 3203 3205 3206 3208 3209 3209 3210 3210 3210 3211 3211 3211 3211 3211 3211 3211 3211 3210 3210 3209 3208 3206 3205 3203 3201 3198 3196 3193 3191 3188 3186 3183 3180 3177 3174 3172 3169 3167 3164 3161 3159 3156 3154 3152 3151 3149 3148 3147 3145 3144 3143 3142 3141 3140 3139 3138 3137 3136 3136 3135 3134 3133 3133 3133 3133 3133 3133 3133 3132 3132 3132 3132 3131 3131 3131 3131
3188 3190 3192 3194 3195 3197 3198 3200 3201 3202 3204 3205 3206 3207 3208 3208 3209 3209 3210 3210 3210 3210 3210 3210 3210 3210 3209 3209 3208 3207 3205 3203 3202 3200 3198 3195 3193 3190 3188 3186 3183 3181 3178 3176 3173 3171 3169 3166 3164 3161 3159 3156 3154 3152 3151 3150 3148 3146 3145 3144 3143 3142 3141 3140 3139 3138 3138 3137 3136 3135 3135 3134 3134 3134 3134 3134 3133 3133 3132 3132 3132 3131 3131 3132 3132
3187 3189 3190 3192 3194 3195 3197 3198 3199 3201 3203 3204 3205 3206 3207 3207 3208 3208 3209 3209 3209 3209 3209 3209 3209 3209 3208 3208 3207 3206 3204 3202 3201 3199 3197 3194 3192 3190 3188 3186 3184 3181 3179 3177 3175 3173 3170 3168 3166 3164 3161 3159 3156 3155 3153 3152 3150 3148 3146 3145 3144 3143 3142 3141 3140 3140 3139 3138 3137 3136 3136 3135 3135 3135 3134 3134 3134 3134 3133 3133 3133 3132 3132 3132 3132
3185 3187 3189 3191 3192 3194 3195 3196 3198 3200 3202 3203 3204 3204 3205 3206 3207 3207 3208 3208 3208 3208 3208 3208 3208 3208 3207 3207 3206 3204 3203 3201 3200 3198 3196 3194 3192 3190 3188 3186 3184 3182 3180 3178 3176 3174 3172 3170 3168 3166 3163 3161 3158 3157 3155 3154 3152 3150 3147 3146 3145 3144 3143 3142 3141 3140 3140 3139 3138 3138 3137 3137 3136 3136 3135 3135 3135 3135 3135 3134 3133 3133 3133 3133 3133
3184 3186 3187 3189 3191 3192 3193 3195 3197 3199 3200 3201 3202 3203 3204 3205 3205 3206 3206 3207 3207 3207 3207 3207 3207 3207 3206 3205 3204 3203 3202 3200 3199 3197 3195 3193 3191 3189 3187 3186 3184 3182 3180 3178 3177 3175 3173 3171 3169 3167 3165 3163 3160 3159 3157 3156 3154 3152 3149 3147 3145 3144 3143 3142 3141 3141 3141 3140 3140 3139 3139 3138 3138 3137 3136 3136 3136 3136 3135 3135 3134 3134 3134 3134 3134
3182 3184 3185 3187 3189 3190 3192 3194 3196 3197 3198 3199 3201 3202 3203 3203 3204 3205 3205 3206 3206 3206 3206 3206 3206 3206 3205 3204 3203 3202 3200 3199 3197 3196 3194 3192 3190 3188 3187 3185 3184 3182 3180 3179 3177 3176 3174 3172 3170 3168 3166 3164 3162 3160 3159 3157 3156 3154 3151 3149 3147 3145 3144 3143 3142 3142 3141 3141 3141 3141 3140 3140 3139 3138 3137 3137 3137 3137 3136 3136 3136 3136 3136 3136 3135
3180 3182 3183 3185 3187 3189 3190 3192 3194 3195 3197 3198 3199 3200 3201 3202 3203 3204 3204 3205 3205 3205 3205 3205 3205 3205 3204 3203 3202 3200 3199 3198 3196 3195 3193 3191 3189 3188 3187 3185 3183 3182 3181 3179 3178 3176 3175 3173 3171 3169 3167 3165 3164 3162 3160 3159 3157 3155 3153 3150 3148 3147 3146 3145 3144 3143 3143 3143 3143 3142 3142 3141 3141 3140 3139 3138 3138 3138 3137 3137 3137 3137 3137 3137 3137
3178 3180 3182 3184 3185 3187 3189 3191 3192 3194 3195 3196 3198 3199 3200 3201 3202 3202 3203 3204 3204 3204 3204 3204 3204 3204 3203 3202 3200 3199 3198 3197 3195 3194 3192 3190 3188 3187 3186 3184 3183 3182 3181 3179 3178 3177 3175 3174 3172 3170 3168 3166 3165 3163 3162 3160 3158 3156 3154 3152 3150 3148 3147 3146 3145 3145 3144 3144 3144 3144 3143 3143 3142 3141 3140 3140 3139 3139 3139 3139 3139 3139 3139 3139 3138
3176 3178 3180 3182 3184 3185 3187 3189 3191 3192 3193 3194 3196 3198 3199 3200 3200 3201 3202 3202 3203 3203 3203 3203 3203 3202 3202 3201 3199 3198 3197 3196 3194 3193 3191 3189 3188 3187 3185 3184 3183 3181 3180 3179 3178 3177 3176 3174 3173 3170 3168 3167 3166 3164 3163 3161 3160 3158 3156 3154 3152 3150 3149 3148 3147 3147 3146 3146 3145 3145 3145 3144 3143 3143 3142 3141 3141 3140 3140 3141 3140 3140 3140 3140 3139
3175 3177 3178 3180 3182 3184 3185 3187 3189 3190 3191 3192 3194 3196 3197 3198 3199 3200 3200 3201 3201 3202 3202 3202 3202 3201 3201 3199 3198 3197 3196 3195 3193 3192 3190 3189 3187 3186 3184 3183 3182 3181 3180 3179 3178 3177 3176 3175 3173 3171 3169 3167 3166 3165 3164 3163 3161 3159 3157 3156 3154 3153 3152 3150 3149 3149 3148 3148 3147 3147 3146 3146 3145 3145 3144 3143 3142 3142 3142 3141 3141 3141 3141 3141 3141
3173 3175 3177 3178 3180 3182 3183 3185 3186 3188 3189 3190 3192 3194 3195 3196 3197 3198 3198 3199 3199 3200 3200 3200 3200 3200 3199 3198 3197 3196 3195 3194 3192 3191 3189 3188 3187 3185 3184 3182 3181 3181 3180 3179 3178 3177 3176 3175 3173 3171 3169 3168 3167 3166 3165 3164 3162 3160 3159 3157 3156 3155 3154 3153 3152 3151 3151 3150 3149 3149 3148 3148 3148 3147 3146 3145 3144 3144 3143 3142 3142 3142 3142 3142 3142
3172 3173 3175 3177 3178 3179 3181 3182 3184 3185 3187 3188 3190 3192 3193 3194 3194 3195 3195 3196 3197 3198 3198 3198 3198 3198 3198 3197 3196 3195 3194 3193 3191 3190 3188 3187 3186 3185 3183 3182 3181 3180 3179 3179 3178 3177 3175 3174 3173 3171 3170 3168 3167 3167 3166 3165 3163 3162 3160 3159 3158 3157 3156 3155 3154 3154 3153 3152 3152 3151 3151 3150 3150 3149 3148 3147 3147 3146 3145 3144 3143 3143 3144 3144 3144
3169 3171 3173 3174 3176 3177 3179 3180 3181 3183 3184 3185 3187 3189 3190 3191 3191 3191 3192 3193 3194 3195 3195 3196 3196 3196 3195 3195 3195 3194 3193 3192 3190 3189 3188 3187 3185 3184 3183 3182 3181 3180 3179 3178 3177 3176 3175 3174 3173 3171 3170 3169 3168 3167 3166 3165 3164 3163 3161 3160 3159 3158 3157 3157 3156 3156 3155 3154 3154 3153 3153 3152 3152 3151 3150 3150 3149 3148 3147 3146 3146 3145 3146 3146 3146
3167 3169 3171 3172 3173 3174 3176 3177 3179 3180 3181 3183 3185 3186 3187 3187 3187 3188 3190 3191 3192 3193 3193 3194 3195 3194 3193 3193 3193 3192 3192 3190 3189 3188 3187 3186 3185 3183 3182 3181 3180 3179 3179 3178 3177 3176 3175 3174 3173 3172 3170 3169 3168 3168 3167 3166 3165 3163 3162 3162 3161 3159 3159 3158 3158 3157 3156 3156 3155 3155 3154 3154 3153 3153 3152 3152 3151 3150 3149 3149 3148 3148 3148 3148 3148
3166 3167 3168 3169 3170 3172 3173 3175 3176 3178 3179 3181 3182 3183 3183 3183 3184 3186 3188 3189 3190 3190 3190 3192 3192 3192 3191 3190 3190 3190 3190 3189 3188 3187 3186 3185 3184 3182 3181 3181 3180 3179 3178 3178 3177 3176 3175 3174 3173 3172 3171 3170 3169 3168 3167 3167 3165 3164 3163 3162 3162 3161 3160 3160 3159 3159 3158 3158 3157 3156 3156 3155 3155 3154 3154 3153 3153 3153 3152 3151 3151 3150 3150 3150 3150
3163 3164 3165 3167 3168 3170 3171 3172 3174 3175 3177 3178 3179 3179 3179 3180 3182 3185 3187 3186 3186 3187 3187 3188 3189 3189 3188 3188 3188 3188 3187 3186 3186 3185 3185 3184 3183 3182 3181 3180 3179 3179 3178 3178 3177 3176 3175 3174 3173 3172 3171 3170 3169 3168 3168 3167 3166 3165 3164 3163 3162 3162 3161 3161 3160 3160 3160 3159 3158 3158 3157 3157 3156 3156 3155 3155 3155 3154 3154 3153 3153 3152 3152 3151 3151
3161 3162 3163 3164 3165 3167 3168 3170 3172 3174 3175 3175 3175 3175 3176 3178 3180 3183 3183 3182 3182 3183 3184 3185 3186 3187 3187 3186 3186 3185 3184 3184 3184 3184 3183 3182 3182 3181 3180 3180 3179 3178 3178 3177 3176 3176 3175 3174 3173 3172 3171 3170 3169 3169 3168 3167 3167 3166 3164 3164 3163 3162 3162 3161 3161 3161 3161 3160 3160 3159 3158 3158 3158 3157 3157 3156 3156 3156 3155 3155 3154 3154 3153 3153 3153
3159 3160 3160 3161 3163 3165 3167 3169 3171 3172 3172 3172 3173 3174 3175 3176 3177 3177 3176 3177 3179 3180 3180 3182 3184 3185 3185 3184 3183 3182 3182 3182 3182 3182 3182 3181 3180 3180 3180 3179 3178 3178 3177 3177 3176 3176 3175 3174 3173 3173 3172 3171 3170 3169 3168 3168 3167 3166 3165 3164 3164 3163 3162 3162 3162 3162 3161 3161 3161 3160 3160 3159 3159 3158 3158 3158 3157 3157 3157 3156 3156 3155 3155 3154 3154
3156 3157 3158 3159 3161 3163 3166 3168 3169 3168 3168 3169 3171 3172 3173 3173 3173 3172 3173 3176 3178 3178 3179 3181 3183 3183 3183 3182 3181 3180 3180 3180 3180 3180 3180 3180 3179 3179 3179 3178 3178 3177 3177 3176 3176 3175 3175 3174 3173 3172 3171 3171 3170 3169 3169 3168 3167 3166 3165 3165 3164 3164 3163 3163 3162 3162 3162 3162 3161 3161 3161 3160 3160 3160 3159 3159 3158 3158 3158 3157 3157 3156 3156 3155 3155
3154 3155 3156 3157 3159 3161 3164 3165 3164 3164 3165 3167 3168 3169 3169 3169 3169 3170 3172 3175 3177 3177 3178 3180 3181 3181 3181 3180 3179 3178 3178 3178 3178 3179 3179 3178 3178 3178 3178 3177 3177 3177 3176 3176 3176 3175 3174 3173 3173 3172 3172 3171 3170 3169 3169 3169 3168 3167 3166 3165 3164 3164 3164 3163 3163 3163 3163 3162 3162 3162 3162 3161 3161 3161 3160 3160 3159 3159 3159 3158 3158 3157 3157 3156 3156
3152 3153 3154 3155 3157 3159 3160 3161 3160 3161 3163 3164 3164 3165 3165 3166 3167 3168 3170 3172 3174 3175 3176 3177 3178 3178 3178 3177 3176 3176 3176 3176 3177 3177 3177 3177 3177 3177 3177 3176 3176 3176 3176 3175 3175 3175 3174 3173 3173 3172 3171 3171 3170 3169 3169 3169 3168 3167 3166 3165 3165 3164 3164 3164 3163 3163 3163 3163 3163 3162 3162 3162 3162 3161 3161 3161 3160 3160 3159 3159 3159 3158 3158 3157 3157
3150 3151 3152 3154 3155 3156 3156 3157 3158 3159 3159 3160 3160 3161 3162 3162 3164 3166 3167 3169 3170 3171 3171 3172 3174 3175 3175 3174 3174 3174 3174 3174 3175 3175 3175 3176 3176 3176 3175 3175 3175 3175 3175 3175 3175 3174 3173 3173 3173 3172 3171 3171 3170 3170 3169 3169 3168 3167 3166 3166 3165 3164 3164 3164 3164 3164 3163 3163 3163 3163 3163 3162 3162 3162 3162 3161 3161 3161 3160 3160 3160 3159 3159 3158 3158
3147 3148 3149 3151 3151 3151 3152 3153 3155 3155 3155 3156 3156 3157 3158 3159 3161 3163 3164 3165 3166 3167 3168 3169 3171 3172 3172 3172 3172 3172 3172 3172 3173 3173 3174 3174 3174 3174 3174 3174 3174 3174 3174 3174 3174 3174 3173 3173 3172 3172 3171 3171 3171 3170 3170 3169 3168 3167 3167 3166 3165 3165 3164 3164 3164 3164 3164 3164 3164 3163 3163 3163 3163 3162 3162 3162 3162 3161 3161 3160 3160 3160 3159 3159 3159
3143 3144 3146 3147 3147 3147 3149 3150 3151 3152 3151 3152 3153 3155 3156 3157 3158 3159 3160 3161 3162 3164 3165 3167 3169 3170 3170 3169 3170 3170 3170 3170 3171 3171 3172 3173 3173 3173 3173 3173 3173 3173 3173 3173 3173 3173 3172 3172 3172 3172 3171 3171 3171 3170 3170 3169 3169 3168 3167 3166 3166 3165 3165 3165 3164 3164 3164 3164 3164 3164 3164 3164 3163 3163 3163 3162 3162 3162 3161 3161 3161 3160 3160 3159 3159
3140 3141 3142 3143 3144 3145 3146 3147 3147 3148 3148 3148 3151 3153 3154 3154 3155 3155 3156 3157 3159 3162 3163 3165 3166 3167 3167 3167 3168 3168 3168 3168 3169 3170 3170 3171 3171 3171 3171 3172 3172 3172 3172 3172 3172 3172 3171 3171 3172 3172 3171 3171 3170 3170 3170 3170 3169 3168 3167 3167 3166 3165 3165 3165 3165 3164 3164 3164 3164 3164 3164 3164 3164 3164 3163 3163 3163 3162 3162 3161 3161 3160 3160 3160 3159
3138 3139 3139 3140 3141 3142 3142 3143 3144 3145 3145 3145 3147 3149 3150 3150 3151 3152 3153 3154 3157 3159 3161 3163 3164 3165 3165 3165 3165 3165 3166 3166 3167 3168 3169 3169 3169 3170 3170 3170 3171 3171 3171 3171 3171 3171 3171 3171 3171 3171 3171 3170 3170 3170 3170 3170 3169 3168 3167 3167 3166 3166 3165 3165 3165 3165 3164 3164 3164 3164 3164 3164 3164 3164 3164 3163 3163 3162 3162 3161 3161 3160 3160 3159 3159
3136 3136 3137 3137 3137 3138 3139 3140 3141 3143 3143 3143 3143 3145 3146 3147 3148 3149 3150 3152 3155 3157 3159 3160 3161 3162 3163 3163 3163 3163 3164 3165 3166 3166 3167 3167 3168 3168 3169 3169 3170 3170 3170 3170 3170 3170 3170 3170 3171 3171 3170 3170 3170 3170 3169 3169 3169 3168 3167 3167 3167 3166 3165 3165 3165 3165 3164 3164 3164 3164 3164 3164 3164 3164 3163 3163 3162 3162 3161 3161 3160 3160 3159 3159 3158
3133 3134 3134 3134 3134 3135 3137 3138 3139 3140 3141 3140 3141 3142 3144 3145 3146 3147 3149 3151 3153 3155 3157 3158 3159 3160 3160 3161 3161 3162 3162 3163 3164 3165 3165 3165 3166 3166 3167 3168 3169 3169 3169 3169 3169 3169 3169 3170 3170 3170 3170 3169 3169 3169 3169 3169 3169 3168 3167 3167 3167 3166 3166 3165 3165 3165 3164 3164 3164 3164 3164 3164 3164 3164 3163 3163 3162 3161 3161 3160 3160 3159 3159 3158 3157
3131 3131 3132 3132 3132 3134 3135 3135 3136 3137 3138 3138 3140 3141 3142 3143 3144 3146 3148 3150 3152 3154 3155 3156 3157 3157 3158 3159 3159 3160 3160 3161 3162 3162 3163 3163 3164 3165 3166 3166 3167 3168 3168 3168 3168 3168 3168 3169 3169 3169 3169 3169 3169 3169 3169 3169 3168 3168 3167 3167 3167 3166 3166 3165 3165 3165 3164 3164 3164 3164 3164 3164 3164 3163 3163 3162 3162 3161 3160 3160 3159 3159 3158 3157 3156
3129 3129 3129 3130 3131 3132 3133 3133 3134 3135 3136 3137 3139 3140 3141 3142 3144 3145 3148 3150 3151 3152 3153 3154 3155 3156 3156 3157 3157 3158 3159 3159 3160 3160 3161 3162 3162 3163 3164 3165 3166 3167 3167 3167 3167 3167 3167 3168 3168 3168 3168 3168 3168 3168 3168 3169 3168 3167 3166 3166 3166 3166 3166 3165 3165 3165 3164 3164 3164 3163 3163 3163 3163 3163 3162 3162 3161 3161 3160 3159 3159 3158 3157 3157 3156
3127 3127 3128 3128 3130 3130 3131 3132 3133 3134 3135 3136 3137 3139 3140 3142 3144 3145 3147 3149 3149 3150 3151 3152 3153 3154 3155 3155 3155 3156 3156 3157 3158 3158 3159 3160 3160 3161 3162 3163 3164 3165 3166 3166 3166 3166 3166 3167 3167 3167 3167 3167 3167 3167 3168 3168 3168 3167 3166 3166 3166 3166 3166 3165 3165 3164 3164 3164 3164 3163 3163 3163 3162 3162 3162 3161 3161 3160 3159 3159 3158 3157 3157 3156 3155
3125 3125 3126 3127 3128 3129 3130 3130 3131 3132 3134 3135 3137 3138 3140 3142 3143 3145 3146 3147 3148 3149 3150 3151 3152 3152 3153 3153 3153 3153 3154 3154 3155 3156 3157 3158 3158 3159 3160 3161 3162 3163 3164 3164 3164 3164 3165 3165 3166 3166 3166 3166 3166 3166 3167 3167 3167 3167 3166 3166 3166 3166 3166 3165 3165 3164 3164 3164 3163 3163 3163 3162 3162 3161 3161 3160 3160 3159 3159 3158 3157 3156 3156 3155 3154
3123 3124 3124 3125 3126 3127 3128 3129 3130 3131 3132 3134 3136 3137 3139 3141 3142 3143 3144 3145 3146 3147 3149 3149 3150 3151 3151 3151 3150 3151 3151 3152 3153 3154 3155 3155 3156 3157 3158 3159 3160 3161 3162 3163 3163 3163 3164 3164 3165 3165 3165 3165 3165 3165 3166 3166 3166 3166 3166 3165 3165 3165 3165 3165 3164 3164 3163 3163 3163 3162 3162 3162 3161 3161 3160 3160 3159 3158 3158 3157 3156 3156 3155 3154 3153
3121 3122 3123 3124 3125 3126 3127 3127 3129 3130 3131 3133 3135 3136 3138 3139 3140 3141 3142 3144 3145 3146 3147 3147 3148 3149 3149 3148 3148 3148 3149 3150 3151 3152 3152 3153 3154 3155 3156 3157 3158 3159 3160 3161 3162 3162 3162 3163 3163 3164 3164 3164 3164 3164 3165 3165 3165 3165 3165 3165 3164 3164 3164 3164 3164 3163 3163 3162 3162 3162 3161 3161 3160 3160 3159 3159 3158 3158 3157 3156 3155 3155 3154 3153 3152
3119 3120 3121 3122 3123 3124 3125 3126 3127 3129 3130 3132 3133 3135 3136 3137 3138 3139 3140 3142 3142 3143 3144 3145 3145 3147 3147 3146 3146 3146 3147 3147 3148 3149 3150 3151 3152 3153 3154 3155 3156 3157 3158 3159 3160 3160 3161 3162 3162 3162 3162 3162 3162 3163 3163 3164 3164 3164 3164 3163 3163 3163 3163 3163 3162 3162 3162 3161 3161 3161 3160 3160 3159 3159 3158 3158 3157 3156 3156 3155 3154 3153 3153 3152 3151
3117 3118 3119 3120 3121 3122 3124 3125 3126 3128 3129 3131 3132 3133 3134 3135 3136 3137 3138 3139 3140 3140 3141 3142 3143 3144 3145 3144 3144 3144 3144 3145 3146 3147 3148 3149 3150 3151 3152 3153 3154 3155 3156 3157 3158 3159 3159 3160 3160 3160 3161 3161 3161 3161 3162 3162 3162 3163 3163 3162 3162 3162 3162 3161 3161 3161 3160 3160 3160 3159 3159 3158 3158 3158 3157 3156 3156 3155 3154 3154 3153 3152 3151 3151 3150
3114 3115 3117 3118 3119 3120 3122 3123 3125 3126 3128 3129 3130 3131 3133 3134 3135 3136 3136 3137 3137 3138 3138 3139 3140 3142 3142 3142 3141 3142 3142 3142 3143 3144 3145 3146 3147 3148 3149 3150 3151 3153 3154 3154 3155 3157 3157 3158 3158 3159 3159 3159 3159 3159 3160 3160 3161 3161 3161 3161 3160 3160 3160 3160 3160 3160 3159 3159 3158 3158 3157 3157 3157 3156 3156 3155 3154 3154 3153 3152 3152 3151 3150 3149 3149
3111 3112 3114 3115 3116 3118 3120 3121 3123 3124 3126 3127 3128 3130 3131 3132 3133 3134 3134 3134 3135 3136 3137 3137 3137 3139 3140 3140 3139 3139 3140 3140 3141 3142 3143 3144 3145 3146 3147 3148 3149 3150 3151 3152 3153 3154 3155 3156 3156 3157 3157 3157 3157 3158 3158 3159 3159 3159 3159 3159 3159 3159 3159 3158 3158 3158 3158 3157 3157 3156 3156 3156 3155 3155 3154 3153 3153 3153 3152 3151 3150 3150 3149 3149 3148
3108 3109 3110 3112 3114 3115 3117 3118 3120 3121 3123 3124 3126 3128 3129 3129 3130 3131 3132 3132 3133 3134 3134 3134 3134 3135 3137 3138 3137 3137 3137 3138 3138 3139 3140 3141 3142 3143 3144 3145 3146 3147 3148 3149 3150 3152 3153 3153 3154 3154 3155 3155 3155 3156 3156 3157 3157 3157 3157 3157 3157 3157 3157 3157 3157 3156 3156 3156 3155 3155 3154 3154 3153 3153 3152 3152 3151 3151 3151 3150 3149 3148 3148 3147 3147
3104 3106 3108 3109 3111 3112 3114 3116 3117 3119 3120 3122 3124 3125 3126 3127 3128 3129 3130 3131 3131 3132 3132 3132 3132 3132 3134 3135 3135 3134 3134 3135 3136 3136 3137 3139 3140 3141 3142 3142 3143 3145 3146 3146 3148 3149 3150 3151 3152 3152 3152 3153 3153 3153 3154 3154 3155 3155 3156 3156 3155 3155 3155 3155 3155 3155 3154 3154 3154 3153 3153 3152 3152 3151 3151 3150 3150 3149 3149 3149 3148 3147 3146 3146 3145
3101 3103 3105 3107 3108 3110 3111 3113 3114 3116 3118 3120 3121 3123 3124 3125 3126 3127 3128 3129 3129 3130 3130 3129 3129 3129 3130 3132 3133 3132 3132 3132 3133 3134 3135 3136 3137 3138 3139 3140 3141 3142 3143 3144 3145 3147 3148 3149 3149 3150 3150 3150 3151 3152 3152 3152 3153 3153 3154 3154 3154 3153 3153 3153 3153 3153 3152 3152 3152 3151 3151 3151 3150 3149 3149 3149 3148 3148 3147 3147 3147 3146 3145 3145 3144
3098 3100 3102 3104 3106 3107 3109 3110 3112 3113 3115 3117 3119 3120 3122 3123 3124 3125 3126 3126 3127 3127 3127 3127 3127 3127 3127 3128 3129 3129 3129 3130 3130 3131 3132 3133 3134 3135 3136 3137 3138 3140 3141 3141 3143 3144 3146 3146 3147 3148 3148 3148 3149 3150 3150 3151 3151 3151 3152 3152 3152 3151 3151 3151 3151 3151 3151 3150 3150 3150 3149 3149 3148 3148 3147 3147 3147 3146 3146 3145 3145 3144 3144 3143 3143